Wind_Speed
32 32 30 28 25 23 23 23 24 24 25 24 23 23 21 20 19 18 18 17 15 13 13 13 12 13 13 12 12 12 11 11 11 11 11 11 11 11 11 11 12 13 14 16
32 34 35 32 28 26 25 23 24 24 24 24 24 23 24 23 21 20 20 19 17 16 14 14 14 14 14 13 13 13 13 13 13 12 13 12 12 12 12 13 13 14 14 16
33 35 36 37 32 29 27 26 25 25 23 25 25 25 24 23 22 22 20 20 19 18 16 16 16 15 15 15 15 15 15 15 14 15 14 14 13 14 14 15 15 15 16 18
34 36 40 36 34 32 30 27 26 26 25 25 26 26 25 25 24 22 22 22 21 19 19 18 18 17 17 17 17 17 17 17 17 17 16 16 15 16 15 16 16 16 16 16
36 38 39 38 36 35 33 31 29 29 27 27 27 27 27 26 25 24 24 23 22 21 20 20 19 19 18 18 19 19 19 19 19 18 18 18 18 18 18 17 17 17 17 18
37 38 40 38 36 37 37 35 33 32 30 29 29 29 28 28 27 26 26 26 23 21 20 20 20 20 20 20 20 20 20 19 19 19 19 19 19 19 19 19 19 19 19 19
39 38 39 38 37 38 40 38 34 33 33 32 31 29 28 28 28 28 26 25 25 23 22 21 21 21 21 21 21 21 21 21 21 20 20 20 20 20 20 21 21 21 22 22
40 39 39 37 38 39 40 37 35 34 34 33 32 29 29 29 28 27 27 27 25 24 23 23 22 22 21 21 22 22 22 22 21 21 21 20 21 21 21 22 22 23 23 23
41 40 37 37 38 39 39 38 36 34 33 33 33 29 29 27 26 27 26 26 26 25 23 23 23 23 23 23 23 23 23 22 22 22 22 22 22 22 22 22 22 23 23 24
40 39 38 38 38 38 39 39 37 36 34 32 32 31 31 28 27 27 26 26 24 24 23 22 23 23 24 23 23 23 23 23 23 23 22 23 23 22 22 22 23 23 24 25
41 39 38 37 37 38 38 38 38 36 35 34 33 32 30 29 28 28 27 25 25 25 23 23 24 24 25 25 24 24 24 24 24 24 23 23 23 23 23 24 24 24 24 25
38 37 36 37 37 37 37 37 37 36 36 34 34 34 31 29 29 28 26 25 25 26 26 25 24 25 25 26 25 24 24 24 24 24 23 23 23 24 24 24 24 24 24 24
37 37 36 35 36 36 36 36 35 34 34 34 32 31 31 30 28 26 25 24 25 25 25 25 25 25 25 24 24 24 23 23 23 23 23 23 23 23 23 23 23 23 24 24
36 37 34 33 34 34 33 33 31 30 30 29 30 29 29 28 26 25 25 24 24 24 24 24 24 24 24 23 23 23 23 22 22 22 21 21 21 22 22 22 22 23 24 24
34 35 35 33 31 31 31 32 31 30 29 28 27 27 27 26 25 25 24 24 24 24 24 23 23 23 22 22 22 22 22 22 21 20 20 21 21 21 22 22 23 23 23 24
33 32 33 32 29 28 29 29 28 27 26 26 25 25 25 25 25 24 24 24 23 23 23 23 23 22 22 22 21 21 21 20 19 19 20 20 20 21 21 21 21 22 22 23
31 31 31 32 30 29 29 28 27 25 24 24 24 24 23 23 23 22 22 22 22 22 22 22 22 22 21 20 20 19 19 19 19 19 19 19 19 19 20 20 21 21 22 23
28 26 26 27 28 27 26 25 24 23 22 22 23 23 23 22 22 21 21 21 21 20 21 20 20 20 19 19 18 18 18 17 17 17 18 19 19 20 20 20 20 21 22 24
26 26 24 24 24 23 22 22 22 22 22 22 22 21 21 21 20 20 19 19 18 18 18 18 18 18 18 17 17 17 16 16 16 17 18 18 19 19 19 20 21 22 23 24
22 22 22 22 22 21 21 21 22 22 21 21 20 20 19 18 18 18 17 17 16 17 17 17 17 17 17 17 16 15 15 15 16 17 17 18 18 19 19 20 21 22 24 25
19 20 20 20 20 20 20 21 22 21 20 19 19 18 17 17 17 17 16 15 16 16 15 14 14 14 15 15 14 14 14 15 15 16 17 17 17 18 19 21 22 24 25 26
18 18 18 18 17 18 18 19 19 18 17 17 17 16 16 16 16 16 16 15 15 14 14 14 13 13 14 14 13 13 13 14 15 15 16 16 18 19 21 23 24 24 25 25
18 17 17 16 15 16 16 16 16 16 16 16 15 14 15 15 14 14 13 13 13 12 12 13 13 13 13 13 13 13 13 14 15 16 17 18 20 21 22 23 24 25 25 25
15 15 15 15 15 15 15 16 16 16 15 14 14 13 13 12 11 11 11 11 10 11 11 12 12 12 12 12 13 13 14 15 16 18 19 20 21 22 23 23 24 24 24 24
14 14 14 14 14 15 15 15 15 14 14 13 12 12 11 11 10 10 10 10 10 10 10 11 11 11 11 12 13 15 16 17 18 20 20 21 22 22 23 23 23 23 23 23
13 14 14 13 13 13 14 13 13 12 12 12 11 10 10 9 9 8 8 8 9 9 9 9 10 12 13 14 15 16 17 19 20 20 20 21 21 22 22 22 22 22 22 23
13 13 14 13 13 13 12 12 12 11 11 10 10 9 9 8 8 8 8 8 8 9 10 11 13 13 14 15 17 18 19 20 20 21 21 21 22 22 22 22 23 23 23 23
Wind_Direction
218 216 222 226 228 232 240 245 247 245 246 249 256 264 269 277 282 289 293 299 299 300 303 302 297 295 295 296 298 300 301 300 299 295 296 292 284 280 277 276 272 267 263 259
220 216 220 224 226 229 235 241 245 245 244 244 252 260 269 277 280 285 290 292 296 294 296 299 295 291 290 290 292 294 295 296 296 293 291 293 291 287 282 279 276 272 269 264
223 219 220 223 226 229 232 235 237 242 244 243 248 257 266 275 279 284 288 291 293 292 290 290 290 289 289 289 289 289 291 292 291 291 291 290 291 290 285 279 277 277 274 270
227 223 223 225 227 231 233 235 237 240 243 245 249 257 265 272 277 281 284 287 289 291 289 287 286 284 284 285 284 286 287 289 291 291 289 288 289 289 287 284 281 277 277 275
230 227 227 226 226 228 231 233 236 238 242 248 254 258 262 267 274 277 281 280 282 284 285 284 284 283 283 282 283 284 285 287 288 289 289 288 288 288 285 284 284 281 278 278
230 230 229 227 227 228 231 234 236 239 242 248 255 258 262 268 272 277 281 282 281 282 281 280 280 280 279 280 281 282 283 284 285 288 289 290 288 286 283 281 282 283 283 282
231 231 230 227 226 228 230 235 239 243 246 251 254 257 261 264 268 275 277 279 281 281 281 283 283 282 280 278 278 280 281 281 284 286 287 287 287 284 283 282 281 281 281 281
230 230 230 228 227 228 232 237 242 246 249 252 252 255 262 266 267 270 271 275 275 276 277 280 281 281 282 282 279 279 280 281 283 283 284 285 285 283 281 281 281 280 280 281
228 229 230 229 229 230 233 238 241 246 249 251 253 256 262 264 264 270 273 275 272 272 275 278 279 280 283 285 284 281 280 281 281 282 283 283 283 283 281 280 281 282 281 282
227 229 230 229 229 231 233 237 241 245 246 251 253 258 262 264 267 271 273 275 271 271 275 275 277 280 282 284 284 282 282 282 282 282 282 282 284 283 281 280 281 281 282 283
228 229 229 230 230 232 236 239 242 245 249 253 258 260 261 266 269 274 274 272 273 273 273 274 277 279 282 283 283 282 282 281 282 283 282 282 282 282 282 282 283 283 283 283
227 228 230 230 231 233 237 240 244 249 252 257 258 260 263 268 270 273 272 273 274 275 274 275 278 280 282 283 282 281 281 280 280 281 281 281 281 281 281 282 283 284 284 284
227 227 229 232 232 235 237 241 245 248 251 255 258 261 266 270 269 271 271 271 272 274 274 276 279 281 282 281 281 282 283 283 282 281 281 280 280 281 281 282 283 283 284 285
228 227 229 232 235 236 235 238 242 247 250 253 257 261 264 265 265 268 268 268 270 273 276 278 278 280 281 281 281 282 283 284 284 283 283 281 281 283 283 283 284 286 287 288
226 227 230 232 234 235 236 239 242 247 250 253 256 260 261 262 265 266 266 267 270 273 275 276 277 278 279 281 281 281 282 283 282 281 282 282 282 283 285 286 287 288 289 289
229 232 233 234 236 236 239 243 244 247 250 251 254 258 260 261 262 264 265 267 269 271 273 274 276 278 280 281 281 281 282 282 282 282 282 283 284 286 287 289 292 291 291 290
232 234 237 237 239 242 244 245 249 248 246 249 254 258 259 260 262 263 265 266 268 270 272 273 274 277 279 280 280 281 282 282 282 282 283 285 286 287 288 290 293 294 294 293
232 233 236 238 240 245 243 240 242 241 244 249 252 255 257 259 260 262 264 265 267 268 270 271 273 275 276 278 279 282 282 281 281 281 284 286 287 289 290 291 293 294 294 295
231 233 234 235 238 241 239 235 235 237 242 246 249 252 254 256 257 260 262 263 264 266 267 269 272 275 277 276 278 280 281 282 283 284 286 288 290 290 291 293 294 295 296 297
229 230 233 235 235 237 238 237 236 236 238 241 245 248 249 252 255 258 259 261 263 265 266 268 271 273 275 276 277 278 281 284 285 287 289 291 292 293 295 296 295 295 297 298
226 228 231 232 232 234 232 233 235 236 237 239 240 241 246 250 253 256 258 258 262 265 266 269 271 272 272 275 277 279 283 287 289 290 291 293 294 296 297 298 299 301 302 303
221 221 224 227 228 225 225 226 228 229 230 231 233 237 243 247 251 255 258 260 261 261 263 266 266 268 272 275 280 284 287 290 291 293 295 297 298 299 300 302 304 305 306 307
217 217 219 220 220 220 220 221 222 223 226 230 231 235 241 246 250 252 252 253 256 259 262 263 265 269 272 276 280 283 287 290 292 294 297 299 300 301 303 304 305 307 307 307
209 211 213 215 217 218 218 217 217 218 222 226 228 232 236 238 239 243 247 247 251 258 263 264 267 270 274 278 281 284 288 291 294 297 299 300 301 303 304 306 307 308 309 309
203 204 205 207 209 209 210 212 212 213 217 220 223 223 227 232 237 240 241 246 248 255 261 266 269 273 279 285 287 289 292 294 296 299 301 302 304 305 307 308 309 310 311 311
194 191 191 194 196 197 200 202 204 207 212 214 214 218 223 225 230 235 241 242 243 251 262 272 279 283 286 288 290 292 294 296 298 300 302 304 305 306 307 309 310 311 311 311
181 183 186 187 187 189 191 193 194 195 196 199 205 212 218 224 226 230 235 239 251 265 275 281 284 287 289 292 293 295 297 299 300 302 303 304 305 306 307 308 309 309 309 310
Height
5842 5847 5849 5852 5855 5858 5860 5862 5863 5865 5867 5869 5870 5871 5872 5873 5873 5874 5874 5874 5873 5872 5872 5871 5871 5870 5869 5869 5868 5867 5866 5865 5864 5863 5863 5861 5861 5860 5860 5859 5859 5858 5858 5858
5836 5841 5844 5846 5850 5853 5855 5857 5858 5860 5862 5864 5865 5867 5868 5869 5869 5870 5870 5870 5870 5869 5869 5868 5867 5867 5866 5865 5865 5864 5863 5862 5861 5860 5859 5858 5858 5857 5856 5856 5855 5854 5854 5853
5830 5835 5838 5841 5845 5847 5849 5851 5853 5855 5859 5860 5861 5863 5864 5865 5866 5866 5865 5866 5866 5865 5864 5864 5864 5863 5862 5861 5861 5860 5859 5859 5858 5857 5856 5855 5854 5853 5852 5851 5850 5850 5849 5849
5824 5829 5831 5838 5840 5842 5844 5845 5848 5850 5853 5855 5857 5858 5859 5861 5861 5862 5862 5862 5861 5860 5860 5860 5859 5858 5858 5857 5857 5856 5855 5854 5854 5853 5852 5851 5850 5849 5848 5847 5846 5845 5845 5844
5817 5820 5824 5830 5834 5836 5838 5839 5842 5845 5848 5850 5851 5853 5854 5855 5856 5857 5857 5856 5856 5856 5855 5855 5854 5854 5853 5852 5852 5851 5850 5850 5849 5848 5847 5846 5845 5844 5843 5842 5841 5840 5839 5839
5809 5813 5816 5824 5827 5829 5832 5833 5837 5839 5842 5845 5846 5848 5849 5850 5851 5851 5851 5850 5850 5850 5849 5849 5849 5848 5848 5847 5847 5846 5845 5845 5844 5843 5842 5841 5840 5839 5838 5837 5836 5835 5834 5833
5801 5805 5809 5816 5819 5822 5826 5828 5832 5834 5836 5839 5841 5842 5844 5844 5844 5845 5845 5844 5844 5844 5844 5843 5843 5842 5842 5841 5841 5840 5840 5839 5838 5837 5836 5835 5834 5833 5832 5831 5830 5829 5828 5827
5793 5798 5804 5808 5812 5815 5818 5822 5825 5828 5830 5832 5833 5835 5836 5837 5837 5838 5838 5838 5839 5838 5838 5837 5837 5837 5836 5836 5835 5835 5834 5833 5833 5832 5831 5830 5828 5827 5826 5825 5824 5822 5821 5820
5786 5792 5797 5801 5805 5808 5812 5815 5819 5821 5824 5826 5827 5828 5830 5830 5830 5831 5831 5831 5832 5832 5832 5832 5831 5831 5831 5830 5829 5828 5828 5827 5826 5825 5824 5823 5822 5821 5819 5818 5817 5816 5814 5813
5778 5783 5788 5793 5797 5801 5805 5809 5812 5814 5816 5819 5820 5822 5823 5824 5824 5825 5825 5824 5824 5825 5825 5826 5825 5825 5825 5824 5823 5822 5821 5821 5820 5819 5818 5817 5815 5814 5813 5812 5810 5809 5807 5806
5771 5776 5781 5786 5790 5794 5798 5801 5805 5807 5809 5812 5814 5815 5816 5817 5817 5818 5818 5818 5819 5819 5819 5819 5819 5819 5818 5817 5816 5815 5814 5814 5813 5812 5811 5810 5809 5807 5806 5805 5804 5802 5800 5799
5764 5769 5775 5779 5783 5787 5791 5794 5797 5800 5802 5804 5806 5808 5809 5810 5810 5811 5811 5811 5812 5812 5812 5812 5812 5812 5812 5811 5809 5807 5807 5806 5805 5804 5803 5802 5801 5800 5799 5798 5796 5795 5793 5792
5757 5762 5767 5771 5775 5779 5783 5786 5789 5792 5795 5797 5799 5800 5802 5803 5804 5804 5805 5805 5806 5806 5806 5806 5805 5805 5804 5803 5802 5801 5800 5799 5798 5797 5796 5795 5794 5793 5792 5791 5789 5788 5786 5785
5750 5755 5760 5764 5768 5771 5775 5778 5781 5784 5786 5789 5791 5793 5795 5796 5797 5798 5798 5798 5799 5799 5799 5799 5798 5798 5797 5796 5795 5794 5793 5792 5791 5790 5789 5788 5787 5786 5785 5784 5782 5781 5779 5777
5744 5749 5753 5757 5759 5763 5767 5771 5774 5777 5779 5782 5784 5785 5787 5788 5789 5791 5791 5791 5792 5792 5792 5792 5791 5791 5790 5789 5788 5787 5787 5786 5785 5784 5783 5782 5780 5779 5778 5777 5775 5774 5772 5770
5737 5742 5746 5750 5754 5757 5760 5763 5766 5769 5772 5775 5777 5778 5780 5781 5782 5783 5783 5784 5784 5785 5785 5785 5784 5784 5783 5783 5782 5781 5780 5779 5779 5778 5777 5776 5774 5773 5772 5770 5769 5767 5765 5763
5731 5735 5739 5743 5747 5750 5754 5757 5760 5762 5765 5767 5769 5771 5773 5774 5775 5775 5776 5777 5777 5778 5778 5778 5778 5777 5777 5776 5776 5775 5774 5773 5773 5772 5771 5769 5768 5767 5766 5764 5762 5760 5758 5756
5725 5729 5733 5737 5740 5743 5746 5749 5752 5755 5757 5760 5762 5764 5766 5767 5768 5769 5770 5770 5771 5771 5772 5772 5772 5771 5771 5771 5770 5769 5768 5768 5767 5766 5765 5764 5762 5761 5760 5758 5756 5754 5752 5750
5720 5724 5727 5731 5734 5736 5739 5742 5745 5748 5751 5754 5756 5758 5760 5761 5762 5763 5764 5764 5765 5766 5766 5766 5766 5766 5765 5765 5765 5764 5763 5762 5762 5761 5760 5758 5757 5755 5754 5752 5750 5748 5746 5743
5714 5718 5722 5725 5728 5731 5733 5736 5740 5742 5745 5748 5750 5752 5754 5755 5757 5758 5758 5759 5760 5760 5760 5760 5760 5761 5760 5760 5760 5759 5758 5758 5757 5755 5754 5753 5751 5749 5748 5746 5744 5741 5739 5736
5710 5713 5717 5720 5723 5725 5728 5731 5734 5737 5740 5742 5745 5747 5749 5750 5752 5753 5753 5754 5755 5755 5755 5756 5756 5756 5756 5755 5755 5754 5753 5753 5751 5750 5749 5747 5746 5744 5742 5740 5737 5735 5732 5729
5705 5709 5712 5715 5718 5721 5723 5726 5729 5732 5735 5738 5740 5742 5744 5746 5747 5748 5749 5750 5750 5751 5751 5751 5752 5752 5752 5751 5751 5750 5749 5748 5747 5746 5744 5742 5741 5738 5736 5734 5731 5728 5725 5721
5701 5705 5708 5711 5714 5717 5720 5723 5726 5728 5731 5734 5736 5738 5740 5741 5743 5744 5745 5746 5746 5747 5747 5748 5748 5748 5748 5747 5746 5746 5745 5744 5742 5741 5739 5737 5735 5733 5730 5727 5724 5721 5718 5715
5699 5702 5705 5708 5711 5714 5717 5720 5723 5725 5728 5730 5733 5735 5736 5738 5739 5740 5741 5742 5743 5743 5744 5744 5744 5744 5744 5743 5742 5741 5740 5739 5738 5736 5734 5731 5729 5726 5723 5721 5717 5714 5711 5708
5697 5700 5703 5706 5709 5712 5715 5718 5720 5723 5725 5727 5729 5731 5733 5735 5736 5737 5738 5739 5740 5740 5741 5741 5741 5740 5740 5739 5738 5737 5736 5734 5732 5730 5728 5725 5723 5720 5717 5714 5711 5708 5705 5702
5695 5698 5701 5705 5708 5711 5713 5716 5718 5721 5723 5725 5727 5729 5731 5732 5733 5735 5735 5736 5737 5737 5738 5737 5737 5737 5736 5735 5734 5732 5731 5729 5726 5724 5722 5719 5717 5714 5711 5708 5705 5702 5699 5696
5694 5697 5701 5704 5706 5709 5712 5715 5717 5719 5722 5724 5725 5727 5729 5730 5731 5732 5733 5734 5734 5734 5734 5734 5733 5732 5731 5730 5728 5727 5725 5723 5721 5718 5716 5713 5711 5708 5705 5702 5699 5696 5693 5690